Pubblicità

header ansia panico

Titolo Data pubblicazione Visite
Ansia e paura nella guida [1623266848584] 15 Giugno 2021 129
Mio marito ha un disturbo? [1617453373407] 12 Aprile 2021 237
Ansietà di amore vero [1615326673748] 22 Marzo 2021 660
Completamente soli [1613639885991] 11 Marzo 2021 247
Sto bene da solo  [1610235925476] 13 Gennaio 2021 240
Avere una relazione con una persona che soffre d'ansia (1608137951806) 11 Gennaio 2021 204
Rivalita' distruttive [1606469916728] 11 Dicembre 2020 270
ansia di infatuazione [1605877232763] 11 Dicembre 2020 1224
Attacco di panico [1604654753908] 24 Novembre 2020 143
Non riesco mai a partire [1605539978744] 19 Novembre 2020 204
ansia di recupero [1604936284126] 10 Novembre 2020 1358
Ansiosa [1603834827112] 30 Ottobre 2020 1310
Ansia da competizione [1601631282730] 12 Ottobre 2020 477
Ansia che causa senso di vomito [1599503470680] 14 Settembre 2020 251
Deglutizione [1598036461691] 31 Agosto 2020 286
Vorrei avere maggiori informazioni sull’EMDR [1593259328316] 30 Giugno 2020 388
La mia vita con gli attacchi di panico [159220398587] 25 Giugno 2020 499
Ansia e panico (1579815239457) 03 Giugno 2020 320
Ansia e panico (1579815239457) 14 Febbraio 2020 809
Attacchi di Panico (1575078292243) 22 Gennaio 2020 361
Ansia e problemi sociali (1572884385545) 20 Novembre 2019 393
Ansia e inadeguatezza (1570737256223) 15 Ottobre 2019 422
Ipocondria (1556980274713) 07 Maggio 2019 453
Aiuto urgente (1554296627141) 18 Aprile 2019 561
Ansia ingestibile (1544294752918) 18 Dicembre 2018 845
Ansia di perdere i propri cari (1541582665631) 19 Novembre 2018 1811
Come non riesco a vivere (1541682761384) 15 Novembre 2018 548
Bambina 10 anni e morte del nonno (1540542799237) 05 Novembre 2018 671
Ansia, depressione (1539200804119) 17 Ottobre 2018 527
Superare una violenza subita (1539166913380) 11 Ottobre 2018 555
Efficacia farmaci per depressione (1538592352931) 09 Ottobre 2018 685
Madre con demenza senile (1537023486398) 04 Ottobre 2018 646
Ansia (1537431251377) 26 Settembre 2018 624
Mia moglie mi ha lasciato (1535092863770) 19 Settembre 2018 935
Non riesco a trovare una via di fuga (1535541180758) 13 Settembre 2018 1150
Sto cadendo nel baratro (1533916175430) 28 Agosto 2018 1286
Ansia o panico? (153372276032) 27 Agosto 2018 597
Ritorno di ansia e attacchi di panico (1533590437439) 08 Agosto 2018 1807
Paura di stare soli (1530615439394) 10 Luglio 2018 636
Non starò autosabotando la mia vita? (1527438733351) 14 Giugno 2018 3622
Mi sento annegare (1526904456707) 05 Giugno 2018 1817
Sono disperata (1527151487735) 30 Maggio 2018 3370
Ho bisogno di aiuto (1526816859763) 24 Maggio 2018 949
Elaborazione del lutto (1526301241709) 23 Maggio 2018 816
Distacco dai genitori (1526380774258) 18 Maggio 2018 2111
Ansia, agitazione e tristezza (1522875267323) 30 Aprile 2018 812
Odio stare tra la gente (1522998831683) 30 Aprile 2018 3049
Tradimento online (1522747401985) 27 Aprile 2018 799
Ansia connessa a preparazione di un concorso (1523874020203) 24 Aprile 2018 3464
Anginofobia (1520192356205) 14 Marzo 2018 7941
Troppa ansia (1519046270877) 06 Marzo 2018 1081
Ansia, depressione, paura (1516622915586) 22 Febbraio 2018 908
Ansia , paura di avere malattia (1514127779147) 01 Febbraio 2018 730
sig (1515917937509) 27 Gennaio 2018 623
Ansia e derealizzazione (1511623114984) 15 Gennaio 2018 1610
Combattere l'ansia e trovare lavoro (1511900794973) 05 Gennaio 2018 2133
Ansia (1512664981742) 02 Gennaio 2018 783
Ansia e depressione (1510124566167) 18 Dicembre 2017 895
diplomato (1505982121469) 08 Novembre 2017 735
Paura di ciò che potrei diventare (1507855492738) 24 Ottobre 2017 1001
signor (1507116572808) 19 Ottobre 2017 728
vivere male (1506370323616) 06 Ottobre 2017 2001
blocchi mentali (1505330248387) 18 Settembre 2017 1220
DEPERSONALIZZAZIONE? (1504461143644) 14 Settembre 2017 1103
Perdo di senso (1504121427983) 08 Settembre 2017 950
Fobia sociale ???? (1504293691118) 07 Settembre 2017 1067
Paura di sentirmi male (1496225533409) 16 Giugno 2017 2043
stress o paura di perdere la persona amata malata di tumore? (1496329232616) 09 Giugno 2017 1412
problemi generici (1495061422435) 23 Maggio 2017 662
Colon irritabile e ansia (1492767679200) 30 Aprile 2017 805
Ansia e attacchi di panico (1488444569949) 08 Marzo 2017 945
Paura del futuro (147301818889) 13 Dicembre 2016 1505
Ansia nelle relazioni e DC (1473714357879) 12 Dicembre 2016 985
Ansia da terrorismo (1472508979231) 16 Novembre 2016 1187
Consulto psicofarmaci urgente (1473940200860) 24 Ottobre 2016 1136
Non ho voglia di fare niente (1473808341502) 21 Ottobre 2016 27522
Ho raccontato una grossa bugia a quattro amiche per avere più affetto da parte loro nei miei confronti (146859072178) 23 Agosto 2016 2121
Stanchezza confusione (1462735364812) 19 Luglio 2016 2302
Ansia e sudore emotivo (1466696035654) 11 Luglio 2016 1677
Aiuto non riesco a parlare in pubblico 06 Luglio 2016 1851
Ansia e pensieri fissi e insonnia (1463741519566) 21 Giugno 2016 2913
sbalzi d' umore, ansia e pianti (1462609799714) 30 Maggio 2016 1534
Attacchi di panico, ansia (1461934529488) 23 Maggio 2016 1693
Ansia perenne (1462049346314) 17 Maggio 2016 3035
Paura di vivere (1461310657726) 10 Maggio 2016 1072
Ansia e panico (146150984124) 06 Maggio 2016 1145
Basta! Non ce la faccio più! (1460564327468) 26 Aprile 2016 1893
Attacchi di panico/ansia (1459459279344) 14 Aprile 2016 1081
Attacchi di panico (1456160096729) 09 Marzo 2016 1657
Ansia (1455275666285) 19 Febbraio 2016 1459
Ansia e sudorazione eccessiva notturna (1455056518857) 17 Febbraio 2016 1659
Terrorizzato (1454161388809) 01 Febbraio 2016 4271
Paura dell'impegno o ansia da relazione (1453220915174) 25 Gennaio 2016 3328
Ansia ed attacchi di panico (1450290159674) 22 Dicembre 2015 1346
Ansia ed attacchi di panico serali (1446663686282) 25 Novembre 2015 4235
Sogni macabri (166355) 24 Ottobre 2015 8781
Sospensione Farmaco (166396) 20 Ottobre 2015 1103
Sensazioni strane (166229) 13 Ottobre 2015 1304
Senso di irrealtà (166447) 01 Ottobre 2015 4602
Attacchi di ansia acuta (1663001) 15 Settembre 2015 868

Guarda anche...

Pubblicità

Pubblicità

I Sondaggi di Psiconline

Ritieni che la tua alimentazione possa influenzare il tuo umore?

Pubblicità

Le Risposte dell'Esperto

Problemi con marito [162342796…

Viola, 38 anni     Buongiorno, avrei bisogno di un consulto per dei problemi con mio marito.Mio marito è molto irascibile ma oltre a urlare no...

Ansia e paura nella guida [162…

Clarissa, 22 anni       Salve, vi scrivo perchè da un paio di mesi sto facendo le guide in autoscuola ma la sto vivendo un po' male...

Sensazione di essere preso in …

  Michele, 75 anni     Gent.mo Dott., sono un musicista (ed ex bancario). Da un po' di tempo mi reco presso un negozio saltuariamente do...

Area Professionale

La trasmissione intergenerazio…

Modificazioni epigenetiche nei figli di sopravvissuti all’Olocausto I figli di persone traumatizzate hanno un rischio maggiore di sviluppare il disturbo post-t...

Il Protocollo CNOP-MIUR e gli …

di Catello Parmentola CNOP e MIUR hanno firmato nel 2020 un Protocollo d'intesa per il supporto psicologico nelle istituzioni scolastiche. Evento molto positiv...

Come gestire il transfert nega…

Per non soccombere alle proiezioni negative del transfert, lo psicoterapeuta deve conoscere con convinzione ciò che appartiene alla psiche del paziente e ciò ch...

Le parole della Psicologia

Sindrome di De Clerambault

La Sindrome di De Clerambault in psichiatria è un tipo di disturbo delirante in cui il paziente ha la convinzione infondata e ossessiva che un'altra persona pro...

Il pregiudizio

Similare alla connotazione più negativa di uno stereotipo, in psicologia un pregiudizio (dal latino prae, "prima" e iudicium, "giudizio") è un'opinione preconce...

Prosopoagnosia

La prosopoagnosia (o prosopagnosia) è un deficit percettivo del sistema nervoso centrale che impedisce il riconoscimento dei volti delle persone (anche dei fami...

News Letters